This demonstration page uses our WeatherBlox Daily Observations layout. Learn more.

Left ArrowRight Arrow

36.17497, -115.13722

Hourly Observations for January 14, 2021

Temp ( °F °C ) Dew Point ( °F °C ) Humidity (%) Winds ( mph kmh ) Pressure ( in mb ) Visibility ( mi km ) Precip ( " mm )
12:53 am 00:53 Clear 45 7.2 15 -9.4 30 30 WNW 5 7 30.29 1026 10 16 N/A
1:53 am 01:53 Clear 46 7.8 16 -8.9 30 30 WSW 9 15 30.30 1026 10 16 N/A
2:53 am 02:53 Clear 48 8.9 18 -7.8 30 30 W 9 15 30.28 1025 10 16 N/A
3:53 am 03:53 Clear 44 6.7 15 -9.4 31 31 NNE 5 7 30.29 1026 10 16 N/A
4:53 am 04:53 Clear 43 6.1 18 -7.8 37 37 SE 3 6 30.30 1026 10 16 N/A
5:53 am 05:53 Clear 43 6.1 19 -7.2 38 38 SSW 6 9 30.32 1027 10 16 N/A
6:53 am 06:53 Sunny 46 7.8 17 -8.3 31 31 NNE 6 9 30.35 1028 10 16 N/A
7:53 am 07:53 Sunny 49 9.4 22 -5.6 35 35 WSW 3 6 30.39 1029 10 16 N/A
8:53 am 08:53 Sunny 55 12.8 24 -4.4 30 30 N N/A 30.41 1030 10 16 N/A
10:53 am 10:53 Sunny 63 17.2 27 -2.8 26 26 ESE 5 7 30.37 1029 10 16 N/A
11:53 am 11:53 Sunny 65 18.3 28 -2.2 25 25 E 8 13 30.35 1028 10 16 N/A
12:53 pm 12:53 Sunny 67 19.4 29 -1.7 24 24 SSE 7 11 30.32 1027 10 16 N/A
1:53 pm 13:53 Sunny 69 20.6 29 -1.7 22 22 SE 8 13 30.30 1026 10 16 N/A
2:53 pm 14:53 Sunny 70 21.1 28 -2.2 21 21 SE 10 17 30.29 1026 10 16 N/A
3:53 pm 15:53 Sunny 69 20.6 26 -3.3 20 20 E 9 15 30.32 1027 10 16 N/A
4:53 pm 16:53 Clear 65 18.3 26 -3.3 23 23 E 8 13 30.33 1027 10 16 N/A
5:53 pm 17:53 Clear 63 17.2 25 -3.9 24 24 ENE 7 11 30.35 1028 10 16 N/A
6:53 pm 18:53 Clear 61 16.1 24 -4.4 24 24 ESE 3 6 30.37 1028 10 16 N/A
7:53 pm 19:53 Clear 59 15 24 -4.4 26 26 N N/A 30.38 1029 10 16 N/A
8:53 pm 20:53 Clear 58 14.4 24 -4.4 27 27 WSW 5 7 30.39 1029 10 16 N/A
9:53 pm 21:53 Clear 52 11.1 25 -3.9 35 35 NW 5 7 30.41 1030 10 16 N/A
10:53 pm 22:53 Clear 51 10.6 24 -4.4 35 35 WNW 7 11 30.43 1030 10 16 N/A
11:53 pm 23:53 Clear 50 10 23 -5 35 35 W 9 15 30.41 1030 10 16 N/A

Powered by AerisWeather